| time (UTC) | temp F | wind direction | speed MPH | gust MPH | rain 1hr in | rain 24hr in | rain mn in | humidity % | barometer mb |
| 20260508044422 | 57 | 184 | 0.0 | 1.0 | 0.00 | 0.00 | 0.00 | 84 | 1015.0 |
| 20260508043922 | 57 | 184 | 0.0 | 2.0 | 0.00 | 0.00 | 0.00 | 84 | 1014.9 |
| 20260508043422 | 57 | 184 | 1.0 | 2.0 | 0.00 | 0.00 | 0.00 | 83 | 1014.8 |
| 20260508042922 | 58 | 184 | 0.0 | 2.0 | 0.00 | 0.00 | 0.00 | 83 | 1014.8 |
| 20260508042422 | 58 | 184 | 1.0 | 1.0 | 0.00 | 0.00 | 0.00 | 83 | 1014.8 |
| 20260508041923 | 58 | 184 | 0.0 | 0.0 | 0.00 | 0.00 | 0.00 | 82 | 1014.8 |
| 20260508041424 | 59 | 184 | 0.0 | 0.0 | 0.00 | 0.00 | 0.00 | 82 | 1014.9 |
| 20260508040924 | 59 | 184 | 0.0 | 0.0 | 0.00 | 0.00 | 0.00 | 82 | 1014.8 |
| 20260508040422 | 59 | 184 | 0.0 | 0.0 | 0.00 | 0.00 | 0.00 | 81 | 1014.8 |
| 20260508034922 | 60 | 184 | 0.0 | 0.0 | 0.00 | 0.00 | 0.00 | 80 | 1014.6 |
| 20260508034423 | 60 | 184 | 0.0 | 0.0 | 0.00 | 0.00 | 0.00 | 79 | 1014.7 |
| 20260508033923 | 61 | 184 | 0.0 | 0.0 | 0.00 | 0.00 | 0.00 | 78 | 1014.7 |
| 20260508033422 | 61 | 184 | 0.0 | 0.0 | 0.00 | 0.00 | 0.00 | 78 | 1014.6 |
| 20260508032923 | 61 | 184 | 0.0 | 0.0 | 0.00 | 0.00 | 0.00 | 77 | 1014.6 |
| 20260508032423 | 62 | 184 | 0.0 | 0.0 | 0.00 | 0.00 | 0.00 | 77 | 1014.6 |
| 20260508031423 | 62 | 184 | 0.0 | 2.0 | 0.00 | 0.00 | 0.00 | 76 | 1014.6 |
| 20260508030922 | 62 | 184 | 0.0 | 2.0 | 0.00 | 0.00 | 0.00 | 76 | 1014.5 |
| 20260508030423 | 62 | 184 | 0.0 | 2.0 | 0.00 | 0.00 | 0.00 | 76 | 1014.3 |
| 20260508025923 | 62 | 184 | 1.0 | 2.0 | 0.00 | 0.00 | 0.00 | 76 | 1014.3 |
| 20260508025423 | 63 | 184 | 1.0 | 2.0 | 0.00 | 0.00 | 0.00 | 76 | 1014.2 |
| 20260508024923 | 63 | 184 | 1.0 | 3.0 | 0.00 | 0.00 | 0.00 | 75 | 1014.3 |
| 20260508024423 | 63 | 184 | 2.0 | 3.0 | 0.00 | 0.00 | 0.00 | 74 | 1014.3 |
| 20260508023923 | 63 | 184 | 2.0 | 3.0 | 0.00 | 0.00 | 0.00 | 75 | 1014.2 |
| 20260508023423 | 63 | 184 | 2.0 | 3.0 | 0.00 | 0.00 | 0.00 | 74 | 1014.1 |
| 20260508022423 | 64 | 184 | 1.0 | 2.0 | 0.00 | 0.00 | 0.00 | 73 | 1014.0 |
| 20260508021923 | 64 | 184 | 0.0 | 0.0 | 0.00 | 0.00 | 0.00 | 73 | 1014.0 |
| 20260508021422 | 64 | 184 | 0.0 | 2.0 | 0.00 | 0.00 | 0.00 | 72 | 1013.9 |
| 20260508020923 | 64 | 184 | 0.0 | 3.0 | 0.00 | 0.00 | 0.00 | 72 | 1013.9 |
| 20260508020423 | 64 | 184 | 1.0 | 3.0 | 0.00 | 0.00 | 0.00 | 72 | 1013.9 |
| 20260508015923 | 64 | 184 | 1.0 | 3.0 | 0.00 | 0.00 | 0.00 | 72 | 1013.8 |
| 20260508015423 | 65 | 184 | 2.0 | 3.0 | 0.00 | 0.00 | 0.00 | 71 | 1013.7 |
| 20260508014923 | 65 | 184 | 2.0 | 3.0 | 0.00 | 0.00 | 0.00 | 71 | 1013.7 |
| 20260508012423 | 66 | 131 | 1.0 | 3.0 | 0.00 | 0.00 | 0.00 | 68 | 1013.8 |
| 20260508011923 | 67 | 131 | 1.0 | 2.0 | 0.00 | 0.00 | 0.00 | 68 | 1013.5 |
| 20260508011424 | 67 | 131 | 0.0 | 0.0 | 0.00 | 0.00 | 0.00 | 66 | 1013.7 |
| 20260508010923 | 68 | 131 | 0.0 | 0.0 | 0.00 | 0.00 | 0.00 | 64 | 1013.5 |
| 20260508010423 | 68 | 131 | 0.0 | 0.0 | 0.00 | 0.00 | 0.00 | 63 | 1013.5 |
| 20260508005923 | 69 | 131 | 0.0 | 0.0 | 0.00 | 0.00 | 0.00 | 63 | 1013.5 |
| 20260508005424 | 70 | 131 | 0.0 | 0.0 | 0.00 | 0.00 | 0.00 | 63 | 1013.4 |
| 20260508004923 | 70 | 131 | 0.0 | 0.0 | 0.00 | 0.00 | 0.00 | 63 | 1013.3 |
| 20260508003924 | 70 | 131 | 0.0 | 1.0 | 0.00 | 0.00 | 0.00 | 59 | 1013.4 |
| 20260508003424 | 70 | 131 | 0.0 | 2.0 | 0.00 | 0.00 | 0.00 | 59 | 1013.6 |
| 20260508002923 | 71 | 131 | 1.0 | 2.0 | 0.00 | 0.00 | 0.00 | 58 | 1013.6 |
| 20260508002423 | 71 | 131 | 0.0 | 3.0 | 0.00 | 0.00 | 0.00 | 58 | 1013.6 |
| 20260508001924 | 71 | 131 | 2.0 | 5.0 | 0.00 | 0.00 | 0.00 | 55 | 1013.6 |
| 20260508001423 | 72 | 131 | 2.0 | 6.0 | 0.00 | 0.00 | 0.00 | 55 | 1013.6 |
| 20260508000924 | 72 | 158 | 3.0 | 6.0 | 0.00 | 0.00 | 0.00 | 53 | 1013.8 |
| 20260508000423 | 73 | 155 | 2.0 | 5.0 | 0.00 | 0.00 | 0.00 | 53 | 1013.9 |
| 20260507235424 | 73 | 133 | 3.0 | 6.0 | 0.00 | 0.00 | 0.00 | 50 | 1013.8 |
| 20260507234924 | 74 | 169 | 3.0 | 6.0 | 0.00 | 0.00 | 0.00 | 49 | 1013.7 |
| 20260507233924 | 75 | 180 | 3.0 | 6.0 | 0.00 | 0.00 | 0.00 | 49 | 1013.7 |
| 20260507233424 | 75 | 138 | 2.0 | 3.0 | 0.00 | 0.00 | 0.00 | 49 | 1013.8 |
| 20260507232924 | 75 | 118 | 2.0 | 7.0 | 0.00 | 0.00 | 0.00 | 50 | 1013.8 |
| 20260507232423 | 75 | 117 | 3.0 | 7.0 | 0.00 | 0.00 | 0.00 | 49 | 1013.8 |
| 20260507231924 | 75 | 142 | 2.0 | 5.0 | 0.00 | 0.00 | 0.00 | 50 | 1013.8 |
| 20260507231424 | 74 | 129 | 3.0 | 5.0 | 0.00 | 0.00 | 0.00 | 49 | 1013.9 |
| 20260507230924 | 74 | 130 | 2.0 | 5.0 | 0.00 | 0.00 | 0.00 | 51 | 1014.0 |
| 20260507230424 | 74 | 141 | 1.0 | 5.0 | 0.00 | 0.00 | 0.00 | 50 | 1013.9 |
| 20260507225924 | 74 | 122 | 1.0 | 6.0 | 0.00 | 0.00 | 0.00 | 50 | 1014.0 |
| 20260507225424 | 73 | 140 | 2.0 | 6.0 | 0.00 | 0.00 | 0.00 | 53 | 1014.1 |
| 20260507224424 | 72 | 144 | 2.0 | 5.0 | 0.00 | 0.00 | 0.00 | 53 | 1014.2 |
| 20260507223924 | 72 | 167 | 3.0 | 5.0 | 0.00 | 0.00 | 0.00 | 52 | 1014.3 |
| 20260507223424 | 72 | 164 | 3.0 | 5.0 | 0.00 | 0.00 | 0.00 | 52 | 1014.4 |
| 20260507222926 | 72 | 124 | 2.0 | 5.0 | 0.00 | 0.00 | 0.00 | 53 | 1014.4 |
| 20260507222424 | 72 | 147 | 2.0 | 6.0 | 0.00 | 0.00 | 0.00 | 52 | 1014.4 |
| 20260507221926 | 73 | 179 | 3.0 | 6.0 | 0.00 | 0.00 | 0.00 | 51 | 1014.6 |
| 20260507220925 | 73 | 147 | 3.0 | 5.0 | 0.00 | 0.00 | 0.00 | 50 | 1014.4 |
| 20260507220425 | 74 | 129 | 2.0 | 5.0 | 0.00 | 0.00 | 0.00 | 48 | 1014.5 |
| 20260507215424 | 76 | 101 | 0.0 | 2.0 | 0.00 | 0.00 | 0.00 | 48 | 1014.6 |
| 20260507214924 | 76 | 101 | 0.0 | 2.0 | 0.00 | 0.00 | 0.00 | 49 | 1014.6 |
| 20260507214425 | 76 | 76 | 0.0 | 7.0 | 0.00 | 0.00 | 0.00 | 49 | 1014.6 |
| 20260507213924 | 75 | 72 | 1.0 | 7.0 | 0.00 | 0.00 | 0.00 | 51 | 1014.7 |
| 20260507213425 | 75 | 126 | 2.0 | 7.0 | 0.00 | 0.00 | 0.00 | 49 | 1014.7 |
| 20260507212925 | 75 | 128 | 1.0 | 9.0 | 0.00 | 0.00 | 0.00 | 48 | 1014.8 |
| 20260507212424 | 75 | 100 | 3.0 | 9.0 | 0.00 | 0.00 | 0.00 | 49 | 1014.8 |
| 20260507211925 | 75 | 111 | 2.0 | 7.0 | 0.00 | 0.00 | 0.00 | 49 | 1014.9 |
| 20260507211424 | 75 | 102 | 3.0 | 7.0 | 0.00 | 0.00 | 0.00 | 49 | 1015.1 |
| 20260507210925 | 75 | 78 | 2.0 | 3.0 | 0.00 | 0.00 | 0.00 | 50 | 1015.0 |
| 20260507205426 | 74 | 88 | 2.0 | 7.0 | 0.00 | 0.00 | 0.00 | 50 | 1015.1 |
| 20260507204925 | 74 | 124 | 2.0 | 6.0 | 0.00 | 0.00 | 0.00 | 49 | 1015.1 |
| 20260507204425 | 74 | 98 | 1.0 | 9.0 | 0.00 | 0.00 | 0.00 | 50 | 1015.2 |
| 20260507203926 | 74 | 115 | 4.0 | 9.0 | 0.00 | 0.00 | 0.00 | 49 | 1015.3 |
| 20260507203426 | 74 | 80 | 3.0 | 7.0 | 0.00 | 0.00 | 0.00 | 50 | 1015.3 |
| 20260507202925 | 73 | 63 | 3.0 | 6.0 | 0.00 | 0.00 | 0.00 | 50 | 1015.4 |
| 20260507202425 | 72 | 41 | 1.0 | 5.0 | 0.00 | 0.00 | 0.00 | 52 | 1015.5 |
| 20260507201925 | 72 | 356 | 3.0 | 7.0 | 0.00 | 0.00 | 0.00 | 51 | 1015.5 |
| 20260507201425 | 72 | 36 | 3.0 | 8.0 | 0.00 | 0.00 | 0.00 | 51 | 1015.7 |
| 20260507200925 | 71 | 100 | 2.0 | 8.0 | 0.00 | 0.00 | 0.00 | 53 | 1015.8 |
| 20260507200424 | 71 | 73 | 2.0 | 9.0 | 0.00 | 0.00 | 0.00 | 52 | 1015.9 |
| 20260507195925 | 71 | 83 | 4.0 | 12.0 | 0.00 | 0.00 | 0.00 | 52 | 1015.9 |
| 20260507195425 | 70 | 42 | 5.0 | 12.0 | 0.00 | 0.00 | 0.00 | 55 | 1015.8 |
| 20260507194927 | 70 | 3 | 7.0 | 10.0 | 0.00 | 0.00 | 0.00 | 53 | 1015.8 |
| 20260507194425 | 70 | 20 | 3.0 | 9.0 | 0.00 | 0.00 | 0.00 | 54 | 1016.0 |
| 20260507193927 | 70 | 235 | 1.0 | 9.0 | 0.00 | 0.00 | 0.00 | 54 | 1016.0 |
| 20260507193425 | 70 | 324 | 6.0 | 12.0 | 0.00 | 0.00 | 0.00 | 52 | 1016.2 |
| 20260507192926 | 70 | 89 | 3.0 | 12.0 | 0.00 | 0.00 | 0.00 | 52 | 1016.4 |
| 20260507192427 | 69 | 15 | 3.0 | 9.0 | 0.00 | 0.00 | 0.00 | 55 | 1016.4 |
| 20260507191425 | 69 | 4 | 6.0 | 12.0 | 0.00 | 0.00 | 0.00 | 53 | 1016.6 |
| 20260507190926 | 68 | 12 | 3.0 | 12.0 | 0.00 | 0.00 | 0.00 | 56 | 1016.6 |
| 20260507185925 | 69 | 349 | 2.0 | 13.0 | 0.00 | 0.00 | 0.00 | 53 | 1016.6 |
| 20260507185425 | 69 | 20 | 3.0 | 8.0 | 0.00 | 0.00 | 0.00 | 58 | 1016.7 |
| 20260507184925 | 68 | 331 | 3.0 | 10.0 | 0.00 | 0.00 | 0.00 | 57 | 1016.7 |
| 20260507184425 | 68 | 36 | 6.0 | 12.0 | 0.00 | 0.00 | 0.00 | 56 | 1016.7 |
| 20260507183425 | 68 | 8 | 4.0 | 10.0 | 0.00 | 0.00 | 0.00 | 55 | 1016.9 |
| 20260507182928 | 68 | 36 | 6.0 | 10.0 | 0.00 | 0.00 | 0.00 | 56 | 1016.9 |
| 20260507182425 | 68 | 53 | 3.0 | 10.0 | 0.00 | 0.00 | 0.00 | 57 | 1017.0 |
| 20260507181926 | 68 | 4 | 5.0 | 10.0 | 0.00 | 0.00 | 0.00 | 56 | 1017.1 |
| 20260507180926 | 67 | 51 | 5.0 | 12.0 | 0.00 | 0.00 | 0.00 | 57 | 1017.4 |
| 20260507180426 | 67 | 1 | 9.0 | 12.0 | 0.00 | 0.00 | 0.00 | 55 | 1017.5 |
| 20260507175425 | 67 | 7 | 5.0 | 12.0 | 0.00 | 0.00 | 0.00 | 54 | 1017.7 |
| 20260507174928 | 67 | 48 | 6.0 | 12.0 | 0.00 | 0.00 | 0.00 | 53 | 1017.8 |
| 20260507174426 | 68 | 27 | 7.0 | 12.0 | 0.00 | 0.00 | 0.00 | 54 | 1018.1 |
| 20260507173426 | 66 | 8 | 7.0 | 12.0 | 0.00 | 0.00 | 0.00 | 54 | 1018.2 |
| 20260507172927 | 66 | 5 | 6.0 | 12.0 | 0.00 | 0.00 | 0.00 | 56 | 1018.4 |
| 20260507172428 | 66 | 48 | 8.0 | 12.0 | 0.00 | 0.00 | 0.00 | 55 | 1018.5 |
| 20260507171926 | 65 | 23 | 5.0 | 12.0 | 0.00 | 0.00 | 0.00 | 58 | 1018.5 |
| 20260507171426 | 65 | 0 | 9.0 | 12.0 | 0.00 | 0.00 | 0.00 | 55 | 1018.6 |
| 20260507170926 | 65 | 11 | 8.0 | 12.0 | 0.00 | 0.00 | 0.00 | 56 | 1018.7 |
| 20260507170426 | 65 | 8 | 6.0 | 12.0 | 0.00 | 0.00 | 0.00 | 56 | 1018.7 |
| 20260507165927 | 65 | 39 | 7.0 | 12.0 | 0.00 | 0.00 | 0.00 | 58 | 1018.8 |
| 20260507165426 | 64 | 25 | 6.0 | 12.0 | 0.00 | 0.00 | 0.00 | 58 | 1018.8 |
| 20260507164926 | 64 | 50 | 4.0 | 12.0 | 0.00 | 0.00 | 0.00 | 57 | 1018.9 |
| 20260507164426 | 64 | 14 | 6.0 | 12.0 | 0.00 | 0.00 | 0.00 | 58 | 1018.9 |
| 20260507163926 | 64 | 6 | 6.0 | 12.0 | 0.00 | 0.00 | 0.00 | 62 | 1018.9 |
| 20260507163426 | 64 | 29 | 7.0 | 13.0 | 0.00 | 0.00 | 0.00 | 61 | 1019.1 |
| 20260507162926 | 64 | 11 | 8.0 | 13.0 | 0.00 | 0.00 | 0.00 | 61 | 1019.0 |
| 20260507161927 | 63 | 32 | 9.0 | 12.0 | 0.00 | 0.00 | 0.00 | 64 | 1019.2 |
| 20260507161426 | 63 | 25 | 6.0 | 12.0 | 0.00 | 0.00 | 0.00 | 64 | 1019.1 |
| 20260507160927 | 63 | 16 | 9.0 | 13.0 | 0.00 | 0.00 | 0.00 | 64 | 1019.2 |
| 20260507160426 | 63 | 9 | 6.0 | 13.0 | 0.00 | 0.00 | 0.00 | 65 | 1019.2 |
| 20260507155927 | 63 | 42 | 5.0 | 12.0 | 0.00 | 0.00 | 0.00 | 65 | 1019.2 |
| 20260507155426 | 62 | 42 | 8.0 | 10.0 | 0.00 | 0.00 | 0.00 | 67 | 1019.2 |
| 20260507154928 | 62 | 41 | 6.0 | 10.0 | 0.00 | 0.00 | 0.00 | 68 | 1019.3 |
| 20260507154428 | 62 | 37 | 7.0 | 12.0 | 0.00 | 0.00 | 0.00 | 69 | 1019.4 |
| 20260507153926 | 62 | 32 | 5.0 | 12.0 | 0.00 | 0.00 | 0.00 | 70 | 1019.4 |
| 20260507152927 | 62 | 30 | 5.0 | 9.0 | 0.00 | 0.00 | 0.00 | 72 | 1019.5 |
| 20260507152426 | 61 | 50 | 5.0 | 9.0 | 0.00 | 0.01 | 0.00 | 73 | 1019.5 |
| 20260507151927 | 61 | 17 | 5.0 | 9.0 | 0.00 | 0.01 | 0.00 | 75 | 1019.5 |
| 20260507151427 | 61 | 51 | 6.0 | 9.0 | 0.00 | 0.01 | 0.00 | 74 | 1019.6 |
| 20260507150927 | 60 | 33 | 5.0 | 9.0 | 0.00 | 0.01 | 0.00 | 75 | 1019.6 |
| 20260507150426 | 60 | 8 | 4.0 | 9.0 | 0.00 | 0.01 | 0.00 | 77 | 1019.6 |
| 20260507145927 | 59 | 34 | 6.0 | 9.0 | 0.00 | 0.01 | 0.00 | 77 | 1019.6 |
| 20260507144927 | 59 | 17 | 5.0 | 10.0 | 0.00 | 0.01 | 0.00 | 77 | 1019.8 |
| 20260507143928 | 60 | 10 | 4.0 | 9.0 | 0.00 | 0.01 | 0.00 | 77 | 1019.8 |
| 20260507142928 | 60 | 10 | 3.0 | 7.0 | 0.00 | 0.01 | 0.00 | 77 | 1019.9 |
| 20260507142427 | 59 | 34 | 2.0 | 7.0 | 0.00 | 0.01 | 0.00 | 79 | 1020.0 |
| 20260507141927 | 58 | 18 | 2.0 | 6.0 | 0.00 | 0.01 | 0.00 | 79 | 1020.0 |
| 20260507141427 | 58 | 10 | 3.0 | 5.0 | 0.00 | 0.01 | 0.00 | 80 | 1020.1 |
| 20260507140927 | 58 | 353 | 2.0 | 8.0 | 0.00 | 0.01 | 0.00 | 80 | 1020.2 |
| 20260507140427 | 58 | 38 | 2.0 | 8.0 | 0.00 | 0.01 | 0.00 | 81 | 1020.1 |
| 20260507135928 | 57 | 10 | 3.0 | 8.0 | 0.00 | 0.01 | 0.00 | 82 | 1020.1 |
| 20260507135427 | 56 | 35 | 3.0 | 6.0 | 0.00 | 0.01 | 0.00 | 84 | 1020.1 |
| 20260507134427 | 55 | 13 | 3.0 | 8.0 | 0.00 | 0.01 | 0.00 | 85 | 1020.2 |
| 20260507133927 | 55 | 355 | 3.0 | 5.0 | 0.00 | 0.01 | 0.00 | 87 | 1020.2 |
| 20260507133427 | 54 | 4 | 3.0 | 7.0 | 0.00 | 0.01 | 0.00 | 88 | 1020.3 |
| 20260507132928 | 54 | 1 | 5.0 | 7.0 | 0.00 | 0.01 | 0.00 | 89 | 1020.1 |
| 20260507132427 | 53 | 26 | 2.0 | 3.0 | 0.00 | 0.01 | 0.00 | 89 | 1020.1 |
| 20260507131927 | 52 | 286 | 0.0 | 0.0 | 0.00 | 0.01 | 0.00 | 89 | 1020.1 |
| 20260507131428 | 51 | 286 | 0.0 | 1.0 | 0.00 | 0.01 | 0.00 | 89 | 1020.2 |
| 20260507130927 | 51 | 286 | 0.0 | 1.0 | 0.00 | 0.01 | 0.00 | 89 | 1020.1 |
| 20260507130428 | 51 | 315 | 0.0 | 0.0 | 0.00 | 0.01 | 0.00 | 89 | 1020.1 |
| 20260507125928 | 50 | 315 | 0.0 | 0.0 | 0.00 | 0.01 | 0.00 | 89 | 1020.0 |
| 20260507125428 | 50 | 315 | 0.0 | 0.0 | 0.00 | 0.01 | 0.00 | 89 | 1019.9 |
| 20260507124927 | 49 | 315 | 0.0 | 0.0 | 0.00 | 0.01 | 0.00 | 89 | 1019.8 |
| 20260507124428 | 49 | 315 | 0.0 | 1.0 | 0.00 | 0.01 | 0.00 | 89 | 1019.8 |
| 20260507123927 | 49 | 315 | 0.0 | 2.0 | 0.00 | 0.01 | 0.00 | 89 | 1019.7 |
| 20260507123428 | 49 | 315 | 1.0 | 3.0 | 0.00 | 0.01 | 0.00 | 89 | 1019.7 |
| 20260507122927 | 49 | 315 | 1.0 | 3.0 | 0.00 | 0.01 | 0.00 | 89 | 1019.6 |
| 20260507122428 | 49 | 315 | 1.0 | 3.0 | 0.00 | 0.01 | 0.00 | 88 | 1019.5 |
| 20260507121927 | 49 | 315 | 1.0 | 3.0 | 0.00 | 0.01 | 0.00 | 88 | 1019.5 |
| 20260507121429 | 49 | 313 | 2.0 | 3.0 | 0.00 | 0.01 | 0.00 | 88 | 1019.3 |
| 20260507120928 | 49 | 313 | 2.0 | 5.0 | 0.00 | 0.01 | 0.00 | 88 | 1019.4 |
| 20260507115928 | 49 | 309 | 3.0 | 3.0 | 0.00 | 0.01 | 0.00 | 88 | 1019.3 |
| 20260507115428 | 49 | 309 | 1.0 | 3.0 | 0.00 | 0.01 | 0.00 | 88 | 1019.3 |
| 20260507114428 | 49 | 309 | 1.0 | 3.0 | 0.00 | 0.01 | 0.00 | 88 | 1019.3 |
| 20260507113928 | 49 | 289 | 1.0 | 3.0 | 0.00 | 0.01 | 0.00 | 88 | 1019.4 |
| 20260507113428 | 49 | 295 | 1.0 | 5.0 | 0.00 | 0.01 | 0.00 | 88 | 1019.3 |
| 20260507112429 | 49 | 308 | 3.0 | 5.0 | 0.00 | 0.01 | 0.00 | 88 | 1019.1 |
| 20260507111928 | 49 | 307 | 2.0 | 3.0 | 0.00 | 0.01 | 0.00 | 88 | 1019.1 |
| 20260507111428 | 50 | 301 | 1.0 | 3.0 | 0.00 | 0.01 | 0.00 | 88 | 1019.0 |
| 20260507110929 | 50 | 301 | 2.0 | 3.0 | 0.00 | 0.01 | 0.00 | 87 | 1018.8 |
| 20260507105928 | 51 | 301 | 1.0 | 3.0 | 0.00 | 0.01 | 0.00 | 87 | 1018.7 |
| 20260507105429 | 51 | 301 | 2.0 | 5.0 | 0.00 | 0.01 | 0.00 | 87 | 1018.6 |
| 20260507104429 | 52 | 278 | 3.0 | 3.0 | 0.00 | 0.01 | 0.00 | 87 | 1018.2 |
| 20260507103929 | 52 | 317 | 2.0 | 3.0 | 0.00 | 0.01 | 0.00 | 87 | 1018.5 |
| 20260507102929 | 52 | 323 | 3.0 | 3.0 | 0.00 | 0.01 | 0.00 | 86 | 1018.5 |
| 20260507102428 | 53 | 324 | 3.0 | 5.0 | 0.00 | 0.01 | 0.00 | 86 | 1018.5 |
| 20260507101929 | 53 | 314 | 3.0 | 5.0 | 0.00 | 0.01 | 0.00 | 86 | 1018.4 |
| 20260507101428 | 53 | 332 | 3.0 | 5.0 | 0.00 | 0.01 | 0.00 | 86 | 1018.1 |
| 20260507100929 | 53 | 330 | 3.0 | 5.0 | 0.00 | 0.01 | 0.00 | 86 | 1017.9 |
| 20260507100428 | 54 | 345 | 3.0 | 6.0 | 0.00 | 0.01 | 0.00 | 86 | 1017.7 |
| 20260507095928 | 54 | 8 | 4.0 | 6.0 | 0.00 | 0.01 | 0.00 | 86 | 1017.6 |
| 20260507095429 | 54 | 358 | 3.0 | 6.0 | 0.00 | 0.01 | 0.00 | 85 | 1017.5 |
| 20260507094929 | 54 | 354 | 3.0 | 5.0 | 0.00 | 0.01 | 0.00 | 85 | 1017.6 |
| 20260507093929 | 55 | 13 | 2.0 | 3.0 | 0.00 | 0.01 | 0.00 | 85 | 1017.5 |
| 20260507093429 | 55 | 27 | 2.0 | 3.0 | 0.00 | 0.01 | 0.00 | 85 | 1017.5 |
| 20260507092929 | 55 | 16 | 2.0 | 3.0 | 0.00 | 0.01 | 0.00 | 84 | 1017.6 |
| 20260507092429 | 55 | 17 | 2.0 | 3.0 | 0.00 | 0.01 | 0.00 | 84 | 1017.7 |
| 20260507091929 | 56 | 8 | 3.0 | 3.0 | 0.00 | 0.01 | 0.00 | 84 | 1017.6 |
| 20260507091428 | 56 | 18 | 3.0 | 5.0 | 0.00 | 0.01 | 0.00 | 84 | 1017.4 |
| 20260507090429 | 56 | 16 | 3.0 | 5.0 | 0.00 | 0.01 | 0.00 | 82 | 1017.4 |
| 20260507085929 | 56 | 35 | 3.0 | 3.0 | 0.00 | 0.01 | 0.00 | 83 | 1017.7 |
| 20260507085429 | 56 | 39 | 2.0 | 3.0 | 0.00 | 0.01 | 0.00 | 82 | 1017.5 |
| 20260507084930 | 57 | 51 | 1.0 | 2.0 | 0.00 | 0.01 | 0.00 | 80 | 1017.6 |
| 20260507084429 | 57 | 51 | 0.0 | 2.0 | 0.00 | 0.01 | 0.00 | 79 | 1017.8 |
| 20260507083930 | 58 | 51 | 1.0 | 2.0 | 0.00 | 0.01 | 0.00 | 79 | 1017.7 |
| 20260507083431 | 58 | 43 | 1.0 | 5.0 | 0.00 | 0.01 | 0.00 | 80 | 1017.7 |
| 20260507082929 | 58 | 43 | 1.0 | 6.0 | 0.00 | 0.01 | 0.00 | 81 | 1017.6 |
| 20260507082429 | 58 | 55 | 2.0 | 6.0 | 0.00 | 0.01 | 0.00 | 82 | 1017.4 |
| 20260507081929 | 57 | 55 | 2.0 | 8.0 | 0.00 | 0.01 | 0.00 | 83 | 1017.3 |
| 20260507080429 | 57 | 42 | 2.0 | 6.0 | 0.00 | 0.01 | 0.00 | 83 | 1017.2 |
| 20260507075930 | 57 | 60 | 1.0 | 10.0 | 0.00 | 0.01 | 0.00 | 83 | 1017.6 |
| 20260507075429 | 57 | 31 | 3.0 | 10.0 | 0.00 | 0.01 | 0.00 | 84 | 1017.2 |
| 20260507074930 | 57 | 30 | 4.0 | 10.0 | 0.00 | 0.01 | 0.00 | 84 | 1017.1 |
| 20260507074431 | 56 | 43 | 3.0 | 8.0 | 0.00 | 0.01 | 0.00 | 84 | 1017.1 |
| 20260507073930 | 56 | 29 | 4.0 | 8.0 | 0.00 | 0.01 | 0.00 | 84 | 1017.1 |
| 20260507073430 | 56 | 25 | 3.0 | 7.0 | 0.00 | 0.01 | 0.00 | 84 | 1017.4 |
| 20260507072929 | 56 | 29 | 5.0 | 7.0 | 0.00 | 0.01 | 0.00 | 83 | 1017.2 |
| 20260507072430 | 56 | 26 | 3.0 | 8.0 | 0.00 | 0.01 | 0.00 | 84 | 1017.3 |
| 20260507071930 | 56 | 18 | 5.0 | 10.0 | 0.00 | 0.01 | 0.00 | 83 | 1017.3 |
| 20260507071429 | 56 | 11 | 6.0 | 10.0 | 0.00 | 0.01 | 0.00 | 82 | 1017.3 |
| 20260507070930 | 57 | 5 | 5.0 | 7.0 | 0.00 | 0.01 | 0.00 | 81 | 1017.3 |
| 20260507070432 | 57 | 41 | 3.0 | 7.0 | 0.00 | 0.01 | 0.00 | 80 | 1017.8 |
| 20260507065929 | 57 | 39 | 3.0 | 6.0 | 0.00 | 0.01 | 0.00 | 80 | 1017.5 |
| 20260507064931 | 57 | 41 | 3.0 | 7.0 | 0.00 | 0.01 | 0.00 | 79 | 1017.3 |
| 20260507064430 | 57 | 34 | 3.0 | 7.0 | 0.00 | 0.01 | 0.00 | 79 | 1017.3 |
| 20260507063930 | 57 | 33 | 4.0 | 7.0 | 0.00 | 0.01 | 0.00 | 79 | 1017.3 |
| 20260507063430 | 57 | 39 | 2.0 | 3.0 | 0.00 | 0.01 | 0.00 | 80 | 1017.4 |
| 20260507062930 | 56 | 38 | 2.0 | 3.0 | 0.00 | 0.01 | 0.00 | 80 | 1017.4 |
| 20260507062430 | 56 | 55 | 2.0 | 3.0 | 0.00 | 0.01 | 0.00 | 80 | 1017.4 |
| 20260507061430 | 57 | 42 | 2.0 | 3.0 | 0.00 | 0.01 | 0.00 | 79 | 1017.0 |
| 20260507060930 | 57 | 70 | 1.0 | 3.0 | 0.00 | 0.01 | 0.00 | 79 | 1017.1 |
| 20260507060430 | 57 | 70 | 1.0 | 3.0 | 0.00 | 0.01 | 0.00 | 79 | 1016.9 |
| 20260507055930 | 57 | 70 | 1.0 | 3.0 | 0.00 | 0.01 | 0.00 | 79 | 1017.0 |
| 20260507055432 | 57 | 70 | 2.0 | 3.0 | 0.00 | 0.01 | 0.00 | 78 | 1016.7 |
| 20260507054931 | 58 | 70 | 0.0 | 3.0 | 0.00 | 0.01 | 0.00 | 77 | 1016.8 |
| 20260507053930 | 58 | 70 | 1.0 | 3.0 | 0.00 | 0.01 | 0.00 | 77 | 1016.6 |
| 20260507053430 | 58 | 70 | 2.0 | 3.0 | 0.00 | 0.01 | 0.00 | 77 | 1016.6 |
| 20260507052432 | 58 | 70 | 1.0 | 5.0 | 0.00 | 0.01 | 0.00 | 78 | 1016.6 |
| 20260507051430 | 58 | 53 | 3.0 | 5.0 | 0.00 | 0.01 | 0.00 | 76 | 1016.9 |
| 20260507050930 | 58 | 60 | 2.0 | 3.0 | 0.00 | 0.01 | 0.00 | 77 | 1016.7 |
| 20260507050430 | 58 | 58 | 2.0 | 5.0 | 0.00 | 0.01 | 0.00 | 77 | 1016.8 |
| 20260507045930 | 58 | 39 | 2.0 | 5.0 | 0.00 | 0.01 | 0.00 | 76 | 1016.7 |
| 20260507045431 | 59 | 57 | 2.0 | 5.0 | 0.00 | 0.01 | 0.01 | 76 | 1017.0 |